Location: Montr�al
(45.5000°N, 73.5830°W)
Time: 00:33:03
(UTC-04:00)

ISS - Visible Passes

Search period start: 26 July 2016 00:00
Search period end: 05 August 2016 00:00
Orbit: 401 x 404 km, 51.6° (Epoch: 25 July)

Date Brightness Start Highest point End Pass type
(mag) Time Alt. Az. Time Alt. Az. Time Alt. Az.
26 Jul -1.1 00:05:24 22° NE 00:05:24 22° NE 00:06:48 10° NE visible
26 Jul -1.1 01:37:54 10° WNW 01:40:41 26° N 01:43:31 10° ENE visible
26 Jul -2.5 03:14:23 10° NW 03:17:36 51° NNE 03:20:47 10° E visible
26 Jul -2.4 04:51:01 10° WNW 04:53:54 28° SW 04:56:45 10° SSE visible
26 Jul -2.3 21:31:44 10° SSW 21:34:26 24° SE 21:37:10 10° E visible
26 Jul -2.7 23:07:28 10° WSW 23:10:41 57° NNW 23:13:54 10° ENE visible
27 Jul -1.1 00:44:43 10° WNW 00:47:33 27° N 00:50:24 10° ENE visible
27 Jul -1.8 02:21:29 10° NW 02:24:33 37° NNE 02:27:37 10° E visible
27 Jul -3.2 03:57:54 10° WNW 04:01:05 51° SW 04:04:15 10° SE visible
27 Jul -3.4 22:14:28 10° WSW 22:17:43 89° SE 22:20:59 10° ENE visible
27 Jul -1.3 23:51:31 10° WNW 23:54:27 30° N 23:57:22 10° NE visible
28 Jul -1.0 01:28:32 10° NW 01:35:00 - ENE 01:30:09 22° NNW visible
28 Jul -3.5 03:08:08 87° WNW 03:08:11 89° SSW 03:11:26 10° ESE visible
28 Jul -1.5 04:42:25 10° W 04:44:12 14° SW 04:45:57 10° SSW visible
28 Jul -3.2 21:21:39 10° SW 21:24:50 51° SE 21:28:01 10° ENE visible
28 Jul -1.8 22:58:18 10° W 23:01:21 36° NNW 23:04:26 10° NE visible
29 Jul -1.1 00:35:30 10° WNW 00:38:13 27° N 00:38:13 27° N visible
29 Jul -2.4 22:05:08 10° W 22:08:19 51° NNW 22:11:31 10° NE visible
29 Jul -1.1 23:42:23 10° WNW 23:45:13 26° N 23:46:46 18° NE visible
30 Jul -0.3 01:19:05 10° NW 01:19:21 12° NW 01:19:21 12° NW visible
30 Jul -3.2 21:12:04 10° WSW 21:15:20 79° NNW 21:18:35 10° ENE visible
30 Jul -1.3 22:49:11 10° WNW 22:52:06 29° N 22:55:00 10° NE visible
31 Jul -1.0 00:26:08 10° NW 00:27:59 24° NNW 00:27:59 24° NNW visible
31 Jul -1.6 21:55:58 10° W 21:58:59 34° NNW 22:02:01 10° NE visible
31 Jul -1.4 23:33:08 10° NW 23:35:59 27° N 23:36:40 25° NNE visible
01 Aug -2.2 21:02:46 10° W 21:05:55 46° NNW 21:09:05 10° NE visible
01 Aug -1.2 22:40:01 10° WNW 22:42:51 26° N 22:45:22 12° ENE visible
02 Aug -0.8 00:16:39 10° NW 00:17:57 21° NW 00:17:57 21° NW visible
02 Aug -1.3 21:46:50 10° WNW 21:49:43 28° N 21:52:36 10° NE visible
02 Aug -1.7 23:23:43 10° NW 23:26:40 33° N 23:26:40 33° N visible
03 Aug -1.5 20:53:36 10° W 20:56:36 32° NNW 20:59:35 10° NE visible
03 Aug -1.4 22:30:43 10° NW 22:33:36 28° N 22:35:24 17° ENE visible
04 Aug -0.6 00:07:08 10° WNW 00:07:59 17° WNW 00:07:59 17° WNW visible
04 Aug -1.3 21:37:38 10° WNW 21:40:27 26° N 21:43:17 10° ENE visible
04 Aug -2.0 23:14:12 10° NW 23:16:44 40° NNW 23:16:44 40° NNW visible
